Location: Allison's Woods
(35.8809°N, 80.8140°W)
Time: 23:22:00
(UTC-05:00)

Iridium 39 - Visible Passes

Search period start: 25 January 2015 00:00
Search period end: 04 February 2015 00:00
Orbit: 776 x 779 km, 86.4° (Epoch: 25 January)

Date Brightness Start Highest point End Pass type
(mag) Time Alt. Az. Time Alt. Az. Time Alt. Az.
25 Jan 9.0 04:17:11 10° NE 04:19:13 13° ENE 04:21:36 10° E visible
25 Jan 6.0 05:55:23 10° N 06:00:32 62° W 06:05:39 10° SSW visible
25 Jan 8.2 18:49:57 10° SW 18:54:23 27° W 18:58:45 10° NNW visible
26 Jan 6.3 05:21:49 10° N 05:27:02 69° E 05:32:12 10° S visible
26 Jan 7.0 18:15:36 10° SSW 18:20:40 52° W 18:25:46 10° N visible
27 Jan 7.5 04:48:38 10° NNE 04:53:22 35° E 04:58:09 10° SSE visible
27 Jan 7.1 06:29:54 10° NNW 06:33:55 22° W 06:37:46 10° SW visible
28 Jan 8.5 04:16:02 10° NE 04:19:33 19° ENE 04:23:17 10° ESE visible
28 Jan 6.3 05:55:39 10° NNW 06:00:32 41° W 06:05:23 10° SSW visible
28 Jan 8.8 18:50:58 10° WSW 18:54:39 19° WNW 18:58:10 10° NW visible
29 Jan 5.8 05:21:52 10° N 05:27:06 81° W 05:32:18 10° S visible
29 Jan 7.9 18:16:05 10° SSW 18:20:50 35° W 18:25:34 10° NNW visible
30 Jan 6.7 04:51:52 37° NNE 04:53:32 52° E 04:58:37 10° SSE visible
30 Jan 7.5 06:32:31 14° WNW 06:33:51 15° W 06:36:34 10° WSW visible
31 Jan 7.9 04:20:41 26° E 04:20:41 26° E 04:24:17 10° SE visible
31 Jan 6.9 06:01:17 27° W 06:01:17 27° W 06:04:52 10° SW visible
31 Jan 9.1 18:52:41 10° W 18:54:59 12° WNW 18:56:59 10° NW visible
01 Feb 7.1 05:29:39 28° SSW 05:29:39 28° SSW 05:32:11 10° SSW visible
01 Feb 8.5 18:16:51 10° SW 18:21:04 24° W 18:25:10 10° NNW visible
02 Feb 8.1 04:57:47 16° S 04:57:47 16° S 04:58:51 10° S visible
